| time (UTC) | temp C | wind direction | speed KPH | gust KPH | rain 1hr cm | rain 24hr cm | rain mn cm | humidity % | barometer mb |
| 20260902060016 | 24 | 0.0 | 0.0 | 0.00 | 0.00 | 0.00 | 87 | 1017.7 | |
| 20260902055016 | 25 | 0.0 | 0.0 | 0.00 | 0.00 | 0.00 | 87 | 1017.7 | |
| 20260902054036 | 25 | 0.0 | 0.0 | 0.00 | 0.00 | 0.00 | 87 | 1017.7 | |
| 20260902053016 | 25 | 0.0 | 0.0 | 0.00 | 0.00 | 0.00 | 86 | 1017.6 | |
| 20260902052016 | 25 | 0.0 | 0.0 | 0.00 | 0.00 | 0.00 | 86 | 1017.6 | |
| 20260902051016 | 25 | 0.0 | 0.0 | 0.00 | 0.00 | 0.00 | 85 | 1017.6 | |
| 20260902050016 | 25 | 0.0 | 0.0 | 0.00 | 0.00 | 0.00 | 85 | 1017.6 | |
| 20260902045016 | 25 | 0.0 | 0.0 | 0.00 | 0.00 | 0.00 | 84 | 1017.5 | |
| 20260902044016 | 25 | 0.0 | 0.0 | 0.00 | 0.00 | 0.00 | 84 | 1017.6 | |
| 20260902043016 | 25 | 0.0 | 0.0 | 0.00 | 0.00 | 0.00 | 85 | 1017.6 | |
| 20260902042016 | 26 | 0.0 | 0.0 | 0.00 | 0.00 | 0.00 | 85 | 1017.6 | |
| 20260902041016 | 26 | 0.0 | 0.0 | 0.00 | 0.00 | 0.00 | 85 | 1017.6 | |
| 20260902040016 | 26 | 0.0 | 0.0 | 0.00 | 0.00 | 0.00 | 85 | 1017.5 | |
| 20260902035037 | 26 | 0.0 | 0.0 | 0.00 | 0.00 | 0.00 | 84 | 1017.4 | |
| 20260902034016 | 26 | 0.0 | 0.0 | 0.00 | 0.00 | 0.00 | 83 | 1017.5 | |
| 20260902033017 | 26 | 0.0 | 0.0 | 0.00 | 0.00 | 0.00 | 82 | 1017.5 | |
| 20260902032036 | 26 | 0.0 | 0.0 | 0.00 | 0.00 | 0.00 | 82 | 1017.6 | |
| 20260902031016 | 26 | 0.0 | 0.0 | 0.00 | 0.00 | 0.00 | 81 | 1017.6 | |
| 20260902030056 | 26 | 0.0 | 0.0 | 0.00 | 0.00 | 0.00 | 81 | 1017.5 | |
| 20260902025016 | 26 | 0.0 | 0.0 | 0.00 | 0.00 | 0.00 | 80 | 1017.4 | |
| 20260902024016 | 26 | 0.0 | 0.0 | 0.00 | 0.00 | 0.00 | 79 | 1017.4 | |
| 20260902023016 | 27 | 0.0 | 0.0 | 0.00 | 0.00 | 0.00 | 79 | 1017.3 | |
| 20260902022016 | 27 | 0.0 | 0.0 | 0.00 | 0.00 | 0.00 | 79 | 1017.3 | |
| 20260902021036 | 27 | 0.0 | 0.0 | 0.00 | 0.00 | 0.00 | 79 | 1017.3 | |
| 20260902020016 | 27 | 0.0 | 0.0 | 0.00 | 0.00 | 0.00 | 79 | 1017.3 | |
| 20260902015016 | 27 | 0.0 | 0.0 | 0.00 | 0.00 | 0.00 | 80 | 1017.3 | |
| 20260902014016 | 27 | 0.0 | 0.0 | 0.00 | 0.00 | 0.00 | 80 | 1017.3 | |
| 20260902013016 | 27 | 0.0 | 0.0 | 0.00 | 0.00 | 0.00 | 80 | 1017.1 | |
| 20260902012016 | 27 | 0.0 | 0.0 | 0.00 | 0.00 | 0.00 | 78 | 1017.0 | |
| 20260902011016 | 28 | 0.0 | 0.0 | 0.00 | 0.00 | 0.00 | 77 | 1016.9 | |
| 20260902010016 | 28 | 0.0 | 0.0 | 0.00 | 0.00 | 0.00 | 76 | 1016.8 | |
| 20260902005016 | 28 | 0.0 | 0.0 | 0.00 | 0.00 | 0.00 | 74 | 1016.7 | |
| 20260902004016 | 29 | 0.0 | 0.0 | 0.00 | 0.00 | 0.00 | 74 | 1016.6 | |
| 20260902003016 | 30 | 0.0 | 0.0 | 0.00 | 0.00 | 0.00 | 72 | 1016.5 | |
| 20260902002016 | 30 | 0.0 | 0.0 | 0.00 | 0.00 | 0.00 | 70 | 1016.5 | |
| 20260902001016 | 31 | 0.0 | 0.0 | 0.00 | 0.00 | 0.00 | 67 | 1016.6 | |
| 20260902000016 | 31 | 0.0 | 0.0 | 0.00 | 0.00 | 0.00 | 64 | 1016.7 | |
| 20260901235016 | 32 | 0.0 | 0.0 | 0.00 | 0.00 | 0.00 | 60 | 1016.7 | |
| 20260901234016 | 32 | 0.0 | 1.6 | 0.00 | 0.00 | 0.00 | 57 | 1016.8 | |
| 20260901233016 | 33 | 225 | 1.6 | 4.8 | 0.00 | 0.00 | 0.00 | 55 | 1016.9 |
| 20260901232016 | 33 | 0.0 | 4.8 | 0.00 | 0.00 | 0.00 | 55 | 1017.0 | |
| 20260901231016 | 33 | 270 | 1.6 | 4.8 | 0.00 | 0.00 | 0.00 | 53 | 1017.0 |
| 20260901230016 | 33 | 248 | 1.6 | 4.8 | 0.00 | 0.00 | 0.00 | 52 | 1017.0 |
| 20260901225016 | 34 | 270 | 1.6 | 6.4 | 0.00 | 0.00 | 0.00 | 52 | 1017.0 |
| 20260901224016 | 34 | 248 | 3.2 | 6.4 | 0.00 | 0.00 | 0.00 | 51 | 1017.0 |
| 20260901223016 | 34 | 248 | 3.2 | 11.3 | 0.00 | 0.00 | 0.00 | 49 | 1017.0 |
| 20260901222016 | 34 | 248 | 4.8 | 9.7 | 0.00 | 0.00 | 0.00 | 48 | 1016.9 |
| 20260901221016 | 35 | 248 | 3.2 | 8.0 | 0.00 | 0.00 | 0.00 | 49 | 1016.9 |
| 20260901220016 | 35 | 248 | 4.8 | 12.9 | 0.00 | 0.00 | 0.00 | 49 | 1016.9 |
| 20260901215016 | 35 | 248 | 3.2 | 9.7 | 0.00 | 0.00 | 0.00 | 48 | 1016.8 |
| 20260901214056 | 35 | 248 | 4.8 | 14.5 | 0.00 | 0.00 | 0.00 | 47 | 1016.8 |
| 20260901213036 | 35 | 248 | 3.2 | 12.9 | 0.00 | 0.00 | 0.00 | 48 | 1016.8 |
| 20260901212016 | 35 | 248 | 4.8 | 12.9 | 0.00 | 0.00 | 0.00 | 48 | 1017.0 |
| 20260901211016 | 35 | 248 | 3.2 | 9.7 | 0.00 | 0.00 | 0.00 | 49 | 1016.9 |
| 20260901210016 | 35 | 248 | 4.8 | 16.1 | 0.00 | 0.00 | 0.00 | 48 | 1017.0 |
| 20260901205016 | 35 | 248 | 6.4 | 14.5 | 0.00 | 0.00 | 0.00 | 47 | 1017.1 |
| 20260901204016 | 35 | 248 | 6.4 | 14.5 | 0.00 | 0.00 | 0.00 | 47 | 1017.2 |
| 20260901203016 | 35 | 248 | 3.2 | 11.3 | 0.00 | 0.00 | 0.00 | 50 | 1017.2 |
| 20260901202036 | 36 | 248 | 6.4 | 12.9 | 0.00 | 0.00 | 0.00 | 48 | 1017.5 |
| 20260901201016 | 36 | 248 | 3.2 | 11.3 | 0.00 | 0.00 | 0.00 | 49 | 1017.5 |
| 20260901200016 | 36 | 248 | 6.4 | 16.1 | 0.00 | 0.00 | 0.00 | 50 | 1017.5 |
| 20260901195056 | 35 | 248 | 6.4 | 17.7 | 0.00 | 0.00 | 0.00 | 50 | 1017.6 |
| 20260901194016 | 35 | 248 | 6.4 | 16.1 | 0.00 | 0.00 | 0.00 | 50 | 1017.7 |
| 20260901193016 | 35 | 248 | 6.4 | 12.9 | 0.00 | 0.00 | 0.00 | 54 | 1017.7 |
| 20260901192016 | 35 | 248 | 6.4 | 12.9 | 0.00 | 0.00 | 0.00 | 51 | 1017.8 |
| 20260901191016 | 35 | 248 | 6.4 | 14.5 | 0.00 | 0.00 | 0.00 | 48 | 1018.0 |
| 20260901190016 | 35 | 248 | 4.8 | 14.5 | 0.00 | 0.00 | 0.00 | 51 | 1018.0 |
| 20260901185016 | 35 | 248 | 4.8 | 14.5 | 0.00 | 0.00 | 0.00 | 51 | 1018.2 |
| 20260901184016 | 35 | 248 | 4.8 | 12.9 | 0.00 | 0.00 | 0.00 | 52 | 1018.3 |
| 20260901183016 | 35 | 270 | 4.8 | 20.9 | 0.00 | 0.00 | 0.00 | 48 | 1018.5 |
| 20260901182016 | 35 | 248 | 6.4 | 17.7 | 0.00 | 0.00 | 0.00 | 53 | 1018.6 |
| 20260901181016 | 35 | 248 | 8.0 | 14.5 | 0.00 | 0.00 | 0.00 | 51 | 1018.6 |
| 20260901180016 | 35 | 248 | 9.7 | 19.3 | 0.00 | 0.00 | 0.00 | 51 | 1018.7 |
| 20260901175016 | 35 | 225 | 4.8 | 14.5 | 0.00 | 0.00 | 0.00 | 52 | 1018.7 |
| 20260901174017 | 35 | 225 | 6.4 | 16.1 | 0.00 | 0.00 | 0.00 | 55 | 1018.9 |
| 20260901173036 | 34 | 248 | 8.0 | 19.3 | 0.00 | 0.00 | 0.00 | 53 | 1019.0 |
| 20260901172016 | 34 | 248 | 4.8 | 16.1 | 0.00 | 0.00 | 0.00 | 54 | 1019.1 |
| 20260901171016 | 35 | 248 | 6.4 | 14.5 | 0.00 | 0.00 | 0.00 | 58 | 1019.1 |
| 20260901170016 | 35 | 248 | 6.4 | 14.5 | 0.00 | 0.00 | 0.00 | 56 | 1019.2 |
| 20260901165016 | 35 | 248 | 4.8 | 14.5 | 0.00 | 0.00 | 0.00 | 56 | 1019.2 |
| 20260901164016 | 35 | 248 | 8.0 | 16.1 | 0.00 | 0.00 | 0.00 | 58 | 1019.3 |
| 20260901163016 | 35 | 248 | 8.0 | 16.1 | 0.00 | 0.00 | 0.00 | 58 | 1019.3 |
| 20260901162016 | 34 | 248 | 4.8 | 14.5 | 0.00 | 0.00 | 0.00 | 59 | 1019.4 |
| 20260901161036 | 33 | 248 | 6.4 | 17.7 | 0.00 | 0.00 | 0.00 | 59 | 1019.5 |
| 20260901160016 | 33 | 248 | 8.0 | 16.1 | 0.00 | 0.00 | 0.00 | 61 | 1019.5 |
| 20260901155016 | 33 | 225 | 8.0 | 16.1 | 0.00 | 0.00 | 0.00 | 60 | 1019.6 |
| 20260901154016 | 33 | 248 | 6.4 | 16.1 | 0.00 | 0.00 | 0.00 | 62 | 1019.6 |
| 20260901153036 | 32 | 248 | 6.4 | 16.1 | 0.00 | 0.00 | 0.00 | 62 | 1019.7 |
| 20260901152016 | 32 | 248 | 6.4 | 14.5 | 0.00 | 0.00 | 0.00 | 64 | 1019.7 |
| 20260901151016 | 32 | 248 | 3.2 | 9.7 | 0.00 | 0.00 | 0.00 | 67 | 1019.6 |
| 20260901150016 | 31 | 248 | 3.2 | 12.9 | 0.00 | 0.00 | 0.00 | 67 | 1019.7 |
| 20260901145016 | 31 | 248 | 3.2 | 8.0 | 0.00 | 0.00 | 0.00 | 69 | 1019.7 |
| 20260901144016 | 30 | 225 | 3.2 | 11.3 | 0.00 | 0.00 | 0.00 | 70 | 1019.7 |
| 20260901143016 | 30 | 248 | 3.2 | 9.7 | 0.00 | 0.00 | 0.00 | 72 | 1019.7 |
| 20260901142016 | 29 | 248 | 3.2 | 8.0 | 0.00 | 0.00 | 0.00 | 73 | 1019.8 |
| 20260901141016 | 28 | 248 | 3.2 | 9.7 | 0.00 | 0.00 | 0.00 | 75 | 1019.8 |
| 20260901140016 | 27 | 248 | 3.2 | 11.3 | 0.00 | 0.00 | 0.00 | 78 | 1019.9 |
| 20260901135016 | 27 | 180 | 1.6 | 6.4 | 0.00 | 0.00 | 0.00 | 81 | 1019.8 |
| 20260901134036 | 26 | 203 | 1.6 | 6.4 | 0.00 | 0.00 | 0.00 | 84 | 1019.8 |
| 20260901133016 | 25 | 0.0 | 8.0 | 0.00 | 0.00 | 0.00 | 87 | 1019.9 | |
| 20260901132016 | 24 | 0.0 | 0.0 | 0.00 | 0.00 | 0.00 | 91 | 1019.7 | |
| 20260901131016 | 23 | 0.0 | 0.0 | 0.00 | 0.00 | 0.00 | 92 | 1019.9 | |
| 20260901130036 | 23 | 0.0 | 0.0 | 0.00 | 0.00 | 0.00 | 93 | 1019.9 | |
| 20260901125016 | 22 | 0.0 | 0.0 | 0.00 | 0.00 | 0.00 | 93 | 1019.8 | |
| 20260901124016 | 22 | 0.0 | 0.0 | 0.00 | 0.00 | 0.00 | 93 | 1019.8 | |
| 20260901123016 | 22 | 0.0 | 0.0 | 0.00 | 0.00 | 0.00 | 93 | 1019.8 | |
| 20260901122016 | 22 | 0.0 | 0.0 | 0.00 | 0.00 | 0.00 | 93 | 1019.7 | |
| 20260901121036 | 21 | 0.0 | 0.0 | 0.00 | 0.00 | 0.00 | 93 | 1019.7 | |
| 20260901120036 | 21 | 0.0 | 0.0 | 0.00 | 0.00 | 0.00 | 92 | 1019.7 | |
| 20260901115016 | 21 | 0.0 | 0.0 | 0.00 | 0.00 | 0.00 | 92 | 1019.5 | |
| 20260901114016 | 21 | 0.0 | 0.0 | 0.00 | 0.00 | 0.00 | 92 | 1019.5 | |
| 20260901113016 | 21 | 0.0 | 0.0 | 0.00 | 0.00 | 0.00 | 92 | 1019.4 | |
| 20260901112016 | 21 | 0.0 | 0.0 | 0.00 | 0.00 | 0.00 | 92 | 1019.1 | |
| 20260901111016 | 21 | 0.0 | 0.0 | 0.00 | 0.00 | 0.00 | 92 | 1019.0 | |
| 20260901110016 | 22 | 0.0 | 0.0 | 0.00 | 0.00 | 0.00 | 92 | 1018.8 | |
| 20260901105016 | 22 | 0.0 | 0.0 | 0.00 | 0.00 | 0.00 | 92 | 1018.7 | |
| 20260901104016 | 22 | 0.0 | 0.0 | 0.00 | 0.00 | 0.00 | 92 | 1018.6 | |
| 20260901103036 | 22 | 0.0 | 0.0 | 0.00 | 0.00 | 0.00 | 91 | 1018.6 | |
| 20260901102016 | 22 | 0.0 | 0.0 | 0.00 | 0.00 | 0.00 | 91 | 1018.5 | |
| 20260901101016 | 22 | 0.0 | 0.0 | 0.00 | 0.00 | 0.00 | 90 | 1018.4 | |
| 20260901100016 | 22 | 0.0 | 0.0 | 0.00 | 0.00 | 0.00 | 90 | 1018.3 | |
| 20260901095016 | 22 | 0.0 | 0.0 | 0.00 | 0.00 | 0.00 | 90 | 1018.2 | |
| 20260901094036 | 22 | 0.0 | 0.0 | 0.00 | 0.00 | 0.00 | 90 | 1018.1 | |
| 20260901093016 | 22 | 0.0 | 0.0 | 0.00 | 0.00 | 0.00 | 90 | 1018.1 | |
| 20260901092016 | 22 | 0.0 | 0.0 | 0.00 | 0.00 | 0.00 | 90 | 1018.0 | |
| 20260901091016 | 22 | 0.0 | 0.0 | 0.00 | 0.00 | 0.00 | 90 | 1018.0 | |
| 20260901090016 | 22 | 0.0 | 0.0 | 0.00 | 0.00 | 0.00 | 90 | 1017.8 | |
| 20260901085016 | 22 | 0.0 | 0.0 | 0.00 | 0.00 | 0.00 | 90 | 1017.7 | |
| 20260901084016 | 22 | 0.0 | 0.0 | 0.00 | 0.00 | 0.00 | 90 | 1017.6 | |
| 20260901083036 | 22 | 0.0 | 0.0 | 0.00 | 0.00 | 0.00 | 89 | 1017.6 | |
| 20260901082016 | 23 | 0.0 | 0.0 | 0.00 | 0.00 | 0.00 | 89 | 1017.6 | |
| 20260901081036 | 23 | 0.0 | 0.0 | 0.00 | 0.00 | 0.00 | 89 | 1017.7 | |
| 20260901080036 | 23 | 0.0 | 0.0 | 0.00 | 0.00 | 0.00 | 89 | 1017.6 | |
| 20260901075016 | 23 | 0.0 | 0.0 | 0.00 | 0.00 | 0.00 | 90 | 1017.7 | |
| 20260901074036 | 23 | 0.0 | 0.0 | 0.00 | 0.00 | 0.00 | 90 | 1017.7 | |
| 20260901073016 | 23 | 0.0 | 0.0 | 0.00 | 0.00 | 0.00 | 90 | 1017.7 | |
| 20260901072016 | 23 | 0.0 | 0.0 | 0.00 | 0.00 | 0.00 | 90 | 1017.8 | |
| 20260901071016 | 23 | 0.0 | 0.0 | 0.00 | 0.00 | 0.00 | 90 | 1017.8 | |
| 20260901070016 | 23 | 0.0 | 0.0 | 0.00 | 0.00 | 0.00 | 90 | 1017.9 | |
| 20260901065016 | 23 | 0.0 | 0.0 | 0.00 | 0.00 | 0.00 | 90 | 1017.9 | |
| 20260901064016 | 23 | 0.0 | 0.0 | 0.00 | 0.00 | 0.00 | 90 | 1018.0 | |
| 20260901063016 | 23 | 0.0 | 0.0 | 0.00 | 0.00 | 0.00 | 90 | 1018.0 | |
| 20260901062016 | 23 | 0.0 | 0.0 | 0.00 | 0.00 | 0.00 | 89 | 1018.1 | |
| 20260901061016 | 23 | 0.0 | 0.0 | 0.00 | 0.00 | 0.00 | 89 | 1018.2 |